Location: Newark
(44.6028°N, 124.0883°W)
Time: 06:30:39
(UTC+00:00)

N. Korean satellite - Pass Details

Date: 24 October 2020
Orbit: 453 x 504 km, 97.2° (Epoch: 30 November)

Event Time Altitude Azimuth Distance (km) Brightness Sun altitude
Rises 12:59:17 0° 28° (NNE) 2,485 10.6 -19.3°
Reaches altitude 10° 13:01:49 10° 48° (NE) 1,600 9.9 -18.8°
Maximum altitude 13:04:14 18° 93° (E) 1,186 9.5 -18.4°
Drops below altitude 10° 13:06:37 10° 138° (SE) 1,578 9.7 -18.0°
Sets 13:09:08 0° 158° (SSE) 2,452 10.4 -17.5°
